Погода в Щербакуле

Погода в Щербакуле : погода сейчас, прогноз погоды и архив. Всё, что Вы хотите узнать о погоде в Щербакуле!

Хотите узнать прогноз погоды в Щербакуле? Тогда Вам сюда: Погода в Щербакуле

Поиск расширенной информации на нашем сайте:

Другие новости

Новости СМИ2

Главная страница сайта

Новости сайта

03.07.2017

Напоминаем, что на нашем специализированном сайте Метеоцентр.Азия вы можете получить высокодетализированные автоматические прогнозы погоды по пунктам России, СНГ и мира в авиационном формате (включающие направление и скорость ветра, видимость, явления погоды, количество и форму облачности, нижнюю и верхнюю границу облачности).

Рекомендуем: http://www.italyvisa.ru Документы необходимые для оформления визы в Италию

Погода в Щербакуле - сегодня

Время (UTC), дата Ветер
(°,м/с) 
Видим.   Явления Облачность Т
(°С)
Тd
(°С)
f(%) Тe
(°С)
Pmin
(гПа)
dP
(гПа)
Po
(мм)
O2
(г/м3)
Тmin Tmax R s Состояние
почвы
15 16.09.17 270 (З) 20000 м    ясно 
+14 +7.6 65 +15  1017.1  0.7  753  287    +22.4       
18 16.09.17 220 (ЮЗ) 20000 м    ясно 
+9.8 +7.1 83 +10  1016.7  -0.5  752  291           
21 16.09.17 210 (ЮЗ) 20000 м    ясно 
+8.7 +5.6 81 +9  1015.7  -1.1  751  293           
00 17.09.17 190 (Ю) 20000 м    3/0 верхняя 
[Ci fib]
+9.7 +5.5 75 +9  1014.1  -1.5  750  291           
03 17.09.17 230 (ЮЗ) 20000 м    10/0 верхняя 
[Ci]
+14.6 +7.7 63 +14  1012.3  -1.5  749  285  +8.5         
06 17.09.17 240 (ЮЗ) 20000 м    4/0 верхняя 
[Ci fib]
+23.7 +9.1 39 +24  1010.6  -1.3  748  276           
09 17.09.17 290 (З) 5{10}  20000 м    10/0 средняя, верхняя 
[Ac cast|Cs]
+24.2 +9.5 39 +25  1010.2  -0.3  748  275           
12 17.09.17 280 (З) 4{10}  20000 м    10/3 1000 м средняя, верхняя 
[Cu med, cong|Ac cast|Cc]
+23.3 +8.8 40 +23  1009.8  -0.5  748  276           
18 17.09.17 300 (СЗ) 20000 м    ясно 
+13.2 +6.9 66 +14  1011.4  0.4  748  287           
21 17.09.17 270 (З) 20000 м    ясно 
+10 +5.6 74 +10  1011.7  0.1  749  290           
00 18.09.17 230 (ЮЗ) 20000 м    ясно 
+4.8 +3.1 89 +4  1012.3  0.3  749  296           
03 18.09.17 270 (З) 20000 м    8/0 верхняя 
[Ci]
+11.1 +6.4 73 +11  1011.9  749  289  +4.7        сухая 
06 18.09.17 250 (З) 20000 м    10/0 средняя 
[Ac As]
+14.1 +6.5 60 +14  1011.5  -0.2  749  286           
09 18.09.17 260 (З) 5{10}  20000 м    10/0 средняя 
[Ac As]
+15.3 +6.1 54 +15  1011.2  -0.3  748  285           
15 18.09.17 280 (З) 4{11}  20000 м  {ливн. осадки}  8/8 500 м кучево-дожд. 
[Cb cap]
+12.9 +5.9 62 +12  1011.3  1.1  748  287    +17.2     
18 18.09.17 280 (З) 20000 м  {ливн. осадки}  10/10 500 м кучево-дожд. 
[Cb cap]
+10.7 +6.4 75 +10  1012.7  1.3  749  289           
21 18.09.17 290 (З) 20000 м    ясно 
+8.4 +6 85 +8  1013.6  0.7  750  292           
00 19.09.17 280 (З) 20000 м    10/3 600 м верхняя 
[Sc|Ci]
+7.5 +5.5 87 +7  1015.7  751  294           
03 19.09.17 300 (СЗ) 20000 м    ясно 
+8.2 +5.8 85 +7  1017.8  2.1  753  294  +6.4        влажная 
06 19.09.17 320 (СЗ) 7-11{11}  20000 м    10/10 1170 м 
[Sc]
+11.4 +2.3 54 +10  1019.1  1.6  754  291           
12 19.09.17 300 (СЗ) 4{10}  20000 м    10/10 1200 м 
[Sc]
+11.4 +3.1 57 +11  1021.2  1.2  756  292           
15 19.09.17 300 (СЗ) 20000 м    10/10 1080 м 
[Sc]
+10.2 +3 61 +10  1022.6  1.3  757  293    +12.4       
18 19.09.17 240 (ЮЗ) 20000 м    6/0 средняя, верхняя 
[Ac lent|Cs]
+4.9 +1.7 80 +5  1023.3  0.4  757  299           
21 19.09.17 200 (Ю) 20000 м    10/10 1170 м 
[Sc]
+6.8 +4.3 84 +7  1022.6  -0.6  756  297           
00 20.09.17 170 (Ю) 20000 м    10/4 1000 м средняя, верхняя 
[Sc|Ac lent|Cc]
+8.2 +3.7 73 +8  1020.8  -1.8  755  295           
Время (UTC), дата Ветер
(°,м/с) 
Видим.   Явления Облачность Т
(°С)
Тd
(°С)
f(%) Тe
(°С)
Pmin
(гПа)
dP
(гПа)
Po
(мм)
O2
(г/м3)
Тmin Tmax R s Состояние
почвы

Для получения пояснительной информации подведите курсор к названию столбца.

ПОГОДА в Щербакуле - архив

Всё, что Вы хотите узнать о погоде в Щербакуле - удобно и подробно!

Выберите нужную дату (начиная с 1 января 2015* года) и нажмите кнопку "Найти".
Будут отображены архивные сводки погоды по пункту Щербакуль, начиная с указанной даты.


Отображать данные в формате CSV (для использования в таблицах Excel)


Внимание! Наш архив погоды предназначен исключительно для личного некоммерческого использования в познавательных целях. Если Вам необходимы официальные справки о состоянии погоды (для производственных, юридических, коммерческих и т.п. целей), обращайтесь в органы Росгидромета.

*Примечание: данная дата относится к архиву по метеостанциям СССР (Россия, СНГ, Балтия).
Архив по метеостанциям Зарубежной Европы и Азии (кроме Китая) хранится 10 дней, по другим регионам земного шара (Китай, Африка, Америка, Австралия, Океания) - 1 день.

Щербакуль - район местоположения метеостанции


Название, широта, долгота, высота метеостанции:
Щербакуль 54.6°ш. 72.4°д. 115 м над ур. моря [Российская Федерация]

Дополнительная информация

В oтличие oт бoльшинства пoгoдных сайтoв мы публикуем пoдрoбную метеoинфoрмацию в детальнoм прoфессиoнальнoм фoрмате.

Характеристики температуры и влажнoсти вoздуха измеряются на высoте 2 м в тени вдали oт зданий и деревьев.
Скoрoсть ветра измеряется на высoте 10 м (на урoвне рoста челoвека скoрoсть ветра ниже в 1.5-2 раза). Если метеoстанция нахoдится в гoрoде или в лесу, тo скoрoсть ветра занижена на 2-4 м/с пo сравнению с oткрытым местoм. Скoрoсть ветра над акватoриями крупных рек и oзёр, а также на вершинах хoлмoв на 2-5 м/с выше, чем в oбычных услoвиях.
Атмoсфернoе давление в разных тoчках местнoсти мoжет значительнo oтличаться oт давления на метеoстанции, в зависимoсти oт услoвий рельефа (при пoдъёме на 10 м давление пoнижается примернo на 1 мм рт.ст.).